This is the latest recevied weather packets stored in our database for station/object AD8IZ-13. If no packets are shown the sender has not sent any weather packets the latest 10 day(s).
| Time | Temp. | Humidity | Pressure | Rain* | Wind** | Luminosity | Snow |
|---|---|---|---|---|---|---|---|
| 1777646128 | 7.78° C | 91% | 1012.5 hPa | 0.76 mm | - | 77 W/m² | - |
| 1777645529 | 7.78° C | 91% | 1012.5 hPa | 0.51 mm | - | 67 W/m² | - |
| 1777644929 | 7.22° C | 90% | 1012.4 hPa | 0.51 mm | - | 97 W/m² | - |
| 1777644328 | 7.22° C | 90% | 1012.4 hPa | 0.25 mm | - | 54 W/m² | - |
| 1777643728 | 7.22° C | 89% | 1012.3 hPa | 0.25 mm | - | 37 W/m² | - |
| 1777643130 | 7.22° C | 90% | 1012.3 hPa | 0.51 mm | - | 62 W/m² | - |
| 1777642529 | 7.22° C | 90% | 1012.4 hPa | 0.51 mm | - | 70 W/m² | - |
| 1777641931 | 7.22° C | 89% | 1012.8 hPa | 0.51 mm | - | 104 W/m² | - |
| 1777641336 | 7.22° C | 88% | 1012.8 hPa | 0.25 mm | - | 36 W/m² | - |
| 1777640729 | 7.22° C | 87% | 1013.1 hPa | 0.25 mm | - | 37 W/m² | - |
| 1777640131 | 7.22° C | 85% | 1013.1 hPa | 0.25 mm | - | 26 W/m² | - |
| 1777639530 | 7.22° C | 85% | 1012.9 hPa | 0.25 mm | - | 38 W/m² | - |
| 1777638930 | 7.22° C | 84% | 1012.9 hPa | 0 mm | - | 46 W/m² | - |
| 1777638331 | 7.22° C | 84% | 1012.8 hPa | 0 mm | - | 56 W/m² | - |
| 1777637730 | 7.22° C | 86% | 1012.7 hPa | 0 mm | - | 42 W/m² | - |
| 1777637132 | 6.67° C | 86% | 1012.5 hPa | 0 mm | - | 54 W/m² | - |
| 1777636531 | 6.67° C | 87% | 1012.6 hPa | 0 mm | - | 33 W/m² | - |
| 1777635931 | 6.67° C | 87% | 1012.7 hPa | 0 mm | - | 30 W/m² | - |
| 1777635333 | 6.11° C | 87% | 1012.7 hPa | 0 mm | - | 15 W/m² | - |
| 1777634732 | 6.11° C | 88% | 1012.8 hPa | 0 mm | - | 20 W/m² | - |
| 1777634131 | 5.56° C | 89% | 1012.8 hPa | 0 mm | - | 12 W/m² | - |
| 1777633517 | 5.56° C | 91% | 1012.8 hPa | 0 mm | - | 12 W/m² | - |
| 1777632917 | 5.56° C | 91% | 1012.8 hPa | 0 mm | - | 11 W/m² | - |
| 1777632317 | 5.56° C | 91% | 1012.7 hPa | 0 mm | - | 6 W/m² | - |
| 1777631717 | 5° C | 93% | 1012.8 hPa | 0 mm | - | 2 W/m² | - |
* Rain latest hour (hover to see other rain measurements)
** Current wind speed in m/s (hover to see current wind gust speed)